Location: Madrid
(40.4000°N, 3.6830°W)
Time: 13:08:44
(UTC+01:00)

ISS - Pass Details

Date: 09 December 2019
Orbit: 411 x 421 km, 51.6° (Epoch: 11 December)

Event Time Altitude Azimuth Distance (km) Brightness Sun altitude
Rises 19:11:16 0° 306° (NW) 2,359 0.6 -15.3°
Reaches altitude 10° 19:13:22 10° 307° (NW) 1,495 -0.5 -15.7°
Maximum altitude 19:16:43 89° 17° (NNE) 422 -3.9 -16.3°
Enters shadow 19:18:20 28° 127° (SE) 807 -2.7 -16.6°
